Location: Bidart
(43.4376°N, 1.5913°W)
Time: 20:48:13
(UTC+00:00)

Cosmos 1656 - Pass Details

Date: 19 May 2025
Orbit: 796 x 848 km, 71.1° (Epoch: 18 June)

Event Time Altitude Azimuth Distance (km) Brightness Sun altitude
Rises 19:50:06 0° 340° (NNW) 3,406 7.8 -4.2°
Reaches altitude 10° 19:52:43 10° 347° (NNW) 2,461 6.9 -4.6°
Maximum altitude 19:58:03 42° 58° (ENE) 1,177 4.3 -5.4°
Drops below altitude 10° 20:03:17 10° 129° (SE) 2,416 5.4 -6.2°
Enters shadow 20:03:55 - 131° (SE) 2,642 5.6 -6.3°
